GFSWCAN_700_temp_000.txt.gz
Temp
-8 -8 -8 -8 -8 -8 -8 -8 -8 -8 -8 -8 -8 -8 -8 -8 -8 -8 -8 -8 -8 -8 -6 -7 -7 -7 -5 -6 -5 -4 -2 -1 -0 1 3 6 8 9 10 10 8 8 9 11 10 10 11 9 10 10 10 12 13 15
-8 -8 -9 -9 -9 -9 -9 -8 -8 -8 -8 -8 -8 -8 -8 -8 -8 -8 -8 -8 -8 -8 -7 -6 -6 -5 -5 -4 -4 -3 -2 -2 -1 -0 1 3 6 7 9 10 9 9 10 10 9 10 9 9 10 9 7 8 11 12
-8 -9 -9 -9 -9 -8 -9 -9 -8 -8 -8 -8 -8 -8 -8 -8 -8 -8 -8 -8 -8 -8 -6 -5 -4 -4 -4 -3 -3 -3 -3 -2 -2 -1 1 2 4 5 6 8 9 8 8 8 8 8 8 8 9 9 5 6 7 7
-8 -8 -9 -8 -8 -8 -8 -8 -8 -8 -8 -8 -8 -9 -8 -8 -8 -8 -8 -8 -8 -8 -7 -6 -5 -5 -3 -3 -2 -2 -3 -3 -2 -2 -1 1 2 4 4 5 7 6 6 6 6 7 8 7 7 7 7 7 8 8
-8 -8 -8 -8 -8 -8 -8 -9 -8 -8 -9 -9 -8 -8 -8 -8 -8 -8 -8 -8 -8 -8 -8 -4 -4 -4 -3 -2 -2 -2 -2 -3 -5 -2 -1 -0 0 2 3 4 6 5 5 6 6 6 7 7 7 6 8 8 9 9
-7 -8 -8 -9 -9 -9 -9 -9 -8 -9 -9 -8 -8 -8 -8 -8 -8 -8 -8 -8 -8 -7 -7 -5 -4 -3 -3 -2 -2 -3 -3 -4 -3 -3 -1 -1 0 2 2 2 3 4 5 5 4 5 6 5 4 5 6 7 7 8
-8 -8 -8 -9 -9 -9 -9 -9 -9 -9 -9 -9 -8 -8 -8 -8 -8 -8 -8 -7 -7 -7 -7 -4 -4 -3 -3 -2 -2 -2 -3 -2 -2 -3 -1 -0 -1 1 2 2 2 3 4 4 5 4 4 4 5 4 4 5 4 6
-8 -8 -9 -9 -9 -9 -9 -8 -8 -8 -8 -8 -7 -7 -7 -7 -7 -7 -7 -7 -7 -7 -7 -5 -3 -3 -2 -3 -3 -2 -2 -2 -2 -2 -0 -0 -0 1 -0 -0 1 2 3 4 4 3 3 3 2 3 2 3 4 4
-8 -8 -8 -8 -8 -8 -8 -8 -8 -7 -7 -7 -7 -7 -7 -6 -7 -7 -7 -7 -7 -7 -6 -5 -4 -3 -2 -2 -2 -3 -2 -2 -2 -1 -0 -0 -0 -1 -1 -0 -0 -0 1 3 2 2 2 1 0 1 3 3 4 5
-7 -8 -7 -7 -8 -7 -7 -7 -7 -6 -6 -6 -6 -7 -7 -6 -6 -6 -6 -6 -6 -5 -4 -4 -3 -4 -3 -2 -1 -1 -1 -2 -2 -0 -0 -1 -1 -1 -1 -1 -0 0 1 1 1 1 1 0 1 1 3 3 4 5
-7 -7 -7 -7 -7 -7 -7 -6 -6 -6 -6 -6 -6 -6 -6 -6 -6 -6 -6 -6 -5 -4 -4 -3 -3 -2 -2 -1 -1 0 -0 -1 -1 -0 -0 -1 -2 -1 -1 -1 -1 -1 -0 -0 -0 -0 -0 1 2 3 4 4 4 5
-6 -7 -6 -6 -6 -6 -6 -6 -6 -6 -6 -6 -6 -5 -5 -6 -5 -5 -5 -4 -4 -4 -3 -3 -3 -2 -1 -1 -0 1 1 2 0 -0 -0 -1 -1 -1 -1 -1 -1 -1 -1 -1 -1 -1 1 2 3 3 3 3 4 4
-6 -6 -5 -5 -5 -5 -5 -5 -5 -5 -5 -5 -5 -5 -5 -5 -5 -4 -4 -4 -3 -3 -3 -2 -3 -3 -1 -0 0 1 2 0 0 0 -1 -1 -1 -1 -1 -1 -1 -1 -1 -1 1 0 1 1 2 2 3 3 3 3
-6 -5 -5 -5 -5 -5 -5 -5 -4 -4 -4 -4 -5 -5 -5 -4 -4 -4 -4 -3 -3 -2 -2 -2 -2 -1 -1 -1 -0 1 1 1 0 -1 -1 -1 -1 -1 -1 -1 -1 -1 -0 -1 -1 -1 -0 0 1 1 1 2 2 2
-5 -5 -5 -5 -4 -4 -4 -5 -4 -4 -4 -5 -5 -5 -5 -4 -4 -4 -3 -3 -2 -2 -2 -2 -2 -2 -1 -1 -1 -0 0 -1 -1 -2 -1 -1 -1 -1 -2 -2 -2 -1 -1 -0 -0 -1 -1 -1 -0 -0 0 0 1 1
-5 -5 -5 -4 -4 -4 -4 -4 -4 -3 -4 -5 -5 -5 -5 -5 -4 -4 -4 -3 -2 -1 -1 -2 -2 -2 -2 -2 -1 -1 -2 -2 -2 -1 -1 -1 -2 -1 -1 -1 -1 -1 -1 -1 -1 -1 -1 -1 -1 -1 -1 -1 -1 -0
-4 -4 -4 -4 -4 -4 -3 -3 -3 -4 -4 -5 -5 -4 -4 -5 -4 -3 -2 -2 -2 -1 -1 -2 -2 -2 -2 -2 -3 -2 -2 -2 -2 -2 -2 -2 -1 -1 -1 -1 -0 -1 -1 -2 -2 -2 -2 -1 -1 -2 -1 -1 -1 -1
-3 -3 -3 -3 -3 -3 -3 -3 -3 -5 -5 -5 -5 -4 -4 -4 -4 -3 -3 -2 -2 -1 -1 -2 -3 -2 -3 -3 -3 -3 -2 -2 -2 -1 -1 -1 -1 -1 -1 -0 -0 -1 -1 -2 -1 -2 -2 -2 -2 -2 -2 -1 -2 -2
-2 -2 -2 -2 -2 -3 -3 -3 -4 -5 -5 -5 -5 -4 -4 -4 -4 -3 -3 -2 -1 -1 -1 -3 -3 -3 -3 -3 -3 -2 -2 -2 -1 -1 -1 -1 -1 -1 -1 -1 -1 -1 -2 -2 -2 -2 -2 -2 -2 -2 -2 -2 -2 -2
-2 -2 -2 -2 -2 -2 -3 -3 -3 -4 -4 -4 -4 -4 -4 -3 -3 -3 -2 -2 -2 -1 -3 -4 -4 -3 -3 -2 -2 -2 -1 -1 -1 -1 -1 -1 -1 -1 -1 -2 -2 -2 -2 -2 -2 -2 -2 -2 -2 -2 -2 -2 -2 -2
-2 -2 -2 -2 -3 -3 -3 -3 -3 -3 -3 -4 -4 -3 -4 -3 -3 -3 -2 -2 -2 -3 -4 -3 -3 -3 -3 -3 -3 -3 -2 -2 -2 -2 -2 -2 -2 -2 -2 -2 -2 -2 -2 -2 -3 -3 -3 -3 -3 -2 -3 -2 -2 -3
-3 -2 -2 -2 -2 -3 -3 -3 -3 -3 -3 -4 -3 -3 -3 -3 -3 -3 -3 -3 -3 -3 -3 -3 -3 -3 -3 -3 -3 -3 -2 -2 -2 -2 -2 -3 -2 -3 -2 -2 -3 -3 -3 -3 -3 -3 -3 -3 -2 -2 -2 -2 -2 -2
-2 -2 -2 -2 -3 -3 -3 -3 -3 -3 -3 -3 -3 -3 -4 -3 -3 -3 -3 -3 -4 -2 -3 -3 -3 -3 -3 -3 -3 -3 -3 -3 -3 -3 -3 -3 -3 -3 -3 -3 -3 -4 -3 -3 -3 -3 -3 -3 -3 -3 -3 -3 -3 -3
-1 -2 -2 -2 -2 -2 -2 -3 -3 -3 -3 -3 -3 -3 -3 -3 -3 -3 -3 -3 -3 -3 -3 -3 -3 -3 -3 -3 -3 -3 -3 -3 -3 -4 -3 -3 -3 -3 -4 -4 -4 -4 -4 -4 -4 -4 -4 -4 -4 -4 -3 -4 -4 -4
-0 -1 -1 -1 -2 -2 -1 -2 -2 -2 -2 -2 -2 -3 -3 -3 -3 -3 -3 -3 -3 -3 -4 -4 -4 -4 -4 -4 -4 -3 -3 -3 -3 -4 -3 -3 -3 -4 -5 -4 -4 -4 -4 -4 -5 -5 -5 -5 -5 -5 -5 -6 -5 -5
-1 -1 -1 -1 -1 -1 -1 -1 -1 -1 -2 -2 -2 -2 -2 -3 -3 -3 -3 -3 -3 -3 -3 -4 -4 -4 -4 -4 -4 -3 -3 -3 -3 -4 -3 -4 -4 -4 -6 -6 -7 -7 -5 -6 -6 -6 -5 -6 -6 -7 -8 -8 -8 -8
-1 -1 -1 -1 -1 -1 -1 -1 -1 -1 -1 -1 -2 -1 -2 -2 -3 -4 -4 -4 -4 -4 -4 -4 -4 -4 -4 -4 -4 -4 -4 -4 -4 -4 -4 -4 -5 -5 -6 -6 -6 -6 -6 -6 -7 -7 -7 -7 -8 -9 -9 -10 -10 -11
-1 -1 -1 -1 -1 -1 -1 -1 -1 -1 -1 -1 -1 -3 -2 -3 -4 -4 -4 -5 -5 -5 -5 -5 -4 -4 -4 -4 -4 -5 -4 -5 -5 -5 -8 -8 -8 -6 -5 -6 -6 -6 -7 -6 -7 -7 -7 -8 -8 -8 -8 -9 -9 -9
-0 -0 -0 -0 -1 -1 -1 -2 -2 -2 -2 -2 -2 -2 -3 -3 -4 -4 -4 -4 -4 -4 -4 -4 -5 -5 -5 -5 -6 -6 -5 -5 -5 -5 -5 -6 -6 -6 -6 -7 -7 -7 -7 -8 -8 -8 -8 -8 -9 -9 -9 -9 -10 -9
-0 -0 -0 -0 -1 -1 -1 -1 -1 -1 -2 -2 -2 -3 -3 -4 -4 -4 -5 -5 -5 -4 -5 -5 -5 -5 -5 -5 -5 -6 -6 -5 -6 -6 -7 -7 -7 -7 -8 -8 -8 -8 -9 -9 -9 -9 -9 -10 -10 -10 -10 -10 -11 -11
-1 -1 -1 -1 -1 -1 -1 -1 -1 -1 -2 -2 -3 -3 -3 -4 -4 -5 -5 -5 -5 -5 -6 -6 -5 -5 -6 -6 -6 -6 -7 -7 -7 -7 -8 -8 -8 -8 -9 -9 -9 -9 -9 -9 -10 -10 -10 -10 -11 -11 -12 -12 -12 -12
-1 -1 -1 -1 -1 -1 -1 -2 -2 -2 -3 -3 -3 -3 -4 -4 -5 -4 -5 -5 -6 -6 -6 -6 -6 -6 -6 -6 -7 -7 -7 -8 -8 -8 -9 -9 -9 -9 -9 -10 -10 -10 -10 -10 -10 -11 -11 -11 -11 -12 -12 -12 -13 -14
-1 -1 -1 -1 -1 -2 -1 -2 -2 -2 -2 -3 -3 -4 -4 -4 -5 -5 -5 -6 -6 -6 -6 -6 -7 -7 -7 -7 -8 -8 -8 -8 -8 -9 -9 -9 -9 -10 -10 -10 -10 -11 -11 -11 -11 -11 -11 -12 -12 -12 -13 -13 -14 -14

GFSWCAN_700_temp_003.txt.gz
Temp
-7 -7 -7 -8 -8 -8 -8 -8 -8 -8 -8 -8 -8 -8 -8 -8 -8 -8 -8 -8 -8 -7 -6 -7 -7 -8 -7 -5 -4 -4 -3 -2 -3 -2 0 3 5 6 8 9 10 9 10 11 11 12 13 11 11 11 12 11 12 13
-7 -7 -7 -8 -8 -8 -8 -8 -8 -8 -8 -8 -8 -8 -8 -8 -8 -8 -8 -8 -8 -8 -7 -7 -7 -8 -7 -7 -6 -5 -4 -4 -3 -2 -1 1 1 5 8 8 10 10 10 11 12 12 10 11 11 11 11 9 10 12
-7 -7 -8 -8 -8 -8 -8 -8 -8 -8 -8 -8 -8 -8 -8 -8 -8 -8 -8 -8 -8 -8 -7 -6 -6 -5 -5 -4 -5 -6 -5 -5 -3 -3 -3 -1 0 2 6 8 10 10 11 11 11 8 8 10 10 9 9 8 9 10
-6 -7 -7 -8 -8 -8 -8 -8 -8 -8 -8 -8 -8 -8 -8 -8 -8 -8 -8 -8 -8 -8 -7 -6 -5 -5 -6 -6 -3 -4 -4 -4 -3 -4 -3 -1 -1 0 3 4 6 4 8 10 8 6 8 9 10 9 7 7 7 9
-7 -7 -8 -8 -8 -8 -8 -8 -8 -8 -8 -8 -8 -8 -8 -8 -8 -8 -8 -8 -8 -8 -7 -6 -5 -5 -5 -4 -4 -3 -4 -4 -4 -3 -2 -1 -0 0 2 3 4 5 6 6 8 7 6 7 7 5 6 6 6 6
-7 -8 -8 -8 -8 -8 -8 -8 -8 -8 -8 -8 -8 -8 -8 -8 -8 -8 -7 -8 -7 -7 -8 -7 -5 -5 -4 -3 -3 -3 -3 -5 -5 -3 -1 -1 -0 -0 1 1 2 2 5 4 5 5 6 6 5 5 5 5 4 4
-7 -7 -8 -8 -8 -8 -8 -8 -8 -7 -7 -7 -8 -8 -8 -7 -8 -8 -7 -7 -7 -7 -7 -5 -4 -4 -4 -3 -3 -4 -3 -3 -3 -3 -2 -1 -0 0 0 1 1 2 3 4 5 5 6 5 5 5 5 4 4 4
-6 -7 -7 -7 -7 -7 -7 -7 -7 -7 -7 -7 -7 -7 -6 -6 -7 -7 -7 -7 -7 -7 -6 -5 -3 -3 -3 -3 -3 -3 -3 -3 -3 -3 -2 -1 -0 -1 -0 -0 1 2 3 4 4 4 4 5 4 5 5 3 3 3
-6 -6 -6 -7 -7 -7 -7 -7 -6 -6 -6 -6 -6 -6 -6 -6 -7 -7 -6 -6 -6 -6 -6 -4 -4 -3 -2 -3 -3 -3 -2 -2 -3 -2 -1 -1 -1 -1 -1 -0 0 1 3 3 3 3 4 4 5 4 3 2 2 3
-6 -6 -6 -6 -6 -6 -6 -6 -6 -6 -6 -6 -6 -6 -6 -6 -6 -6 -5 -6 -5 -5 -4 -3 -3 -3 -2 -1 -0 -1 -1 -1 -1 -1 -1 -1 -2 -1 -1 -1 -0 1 1 1 2 2 2 3 3 3 3 2 1 2
-5 -5 -5 -5 -5 -5 -5 -6 -6 -5 -5 -5 -5 -6 -5 -5 -5 -5 -5 -5 -5 -4 -4 -3 -2 -2 -2 -1 -0 -0 -1 -1 -1 -1 -1 -2 -2 -2 -2 -1 -1 -0 0 0 1 1 1 1 0 -0 0 0 0 0
-4 -5 -5 -5 -5 -5 -5 -4 -4 -4 -4 -4 -4 -4 -4 -5 -5 -5 -4 -4 -3 -3 -3 -2 -2 -2 -2 -1 -1 -1 0 -1 -0 -1 -1 -2 -1 -1 -1 -1 -1 -1 -1 -0 -0 -0 -0 0 -1 -1 -1 -1 0 -0
-4 -4 -4 -4 -5 -4 -5 -5 -3 -3 -3 -4 -4 -4 -5 -4 -4 -4 -4 -4 -3 -3 -2 -2 -2 -2 -1 -1 0 -1 0 -1 -0 -1 -1 -1 -1 -1 -1 -1 -1 -1 -2 -2 -1 0 1 -1 -1 -1 -1 -0 -0 -0
-4 -4 -4 -4 -4 -4 -4 -4 -3 -3 -3 -3 -4 -4 -4 -4 -4 -4 -3 -3 -2 -2 -2 -2 -2 -2 -0 -0 -0 1 1 -1 -1 -1 -1 -1 -1 -1 -1 -1 -1 -1 -1 -1 -1 -1 -1 -1 -0 -0 0 -1 1 1
-3 -3 -4 -3 -3 -3 -4 -3 -4 -3 -3 -4 -4 -4 -4 -4 -3 -3 -3 -2 -2 -2 -2 -2 -1 -1 -0 0 0 -0 -0 -2 -1 -1 -1 -1 -1 -1 -1 -2 -2 -2 -2 -1 -1 -1 -1 -1 -1 -1 1 0 -0 -0
-3 -3 -3 -3 -3 -3 -3 -3 -3 -3 -3 -4 -4 -4 -4 -4 -3 -3 -3 -2 -2 -1 -1 -1 -1 -1 -2 -2 -2 -2 -2 -2 -1 -1 -1 -1 -1 -1 -1 -1 -1 -1 -1 -1 -2 -1 -1 -1 -1 -0 -1 -0 -0 -0
-2 -2 -2 -3 -3 -3 -3 -3 -3 -5 -5 -4 -4 -4 -4 -4 -4 -3 -3 -3 -2 -1 -0 -1 -2 -2 -2 -2 -2 -2 -2 -2 -2 -1 -1 -1 -1 -1 -1 -1 -1 -1 -1 -1 -1 -1 -1 -1 -1 -0 -1 -1 -1 -1
-2 -2 -2 -2 -2 -2 -2 -3 -5 -4 -4 -4 -4 -4 -4 -4 -4 -4 -3 -3 -3 -2 -1 -2 -2 -2 -2 -2 -3 -2 -2 -2 -2 -2 -1 -1 -1 -1 -1 -1 -1 -2 -1 -1 -1 -1 -1 -1 -1 -1 -1 -1 -1 -1
-2 -2 -2 -1 -1 -1 -2 -3 -4 -4 -4 -5 -4 -4 -4 -4 -4 -3 -3 -3 -3 -2 -1 -2 -3 -3 -3 -3 -2 -2 -2 -2 -1 -1 -1 -1 -1 -1 -1 -1 -1 -1 -2 -1 -1 -1 -2 -2 -2 -2 -2 -1 -1 -2
-2 -2 -2 -1 -1 -1 -2 -3 -3 -5 -5 -5 -4 -4 -4 -3 -3 -3 -2 -2 -2 -2 -3 -3 -3 -3 -3 -3 -3 -2 -1 -1 -1 -1 -1 -2 -2 -1 -1 -2 -2 -2 -2 -2 -2 -2 -2 -2 -3 -3 -3 -3 -2 -2
-2 -1 -2 -2 -2 -2 -2 -3 -5 -3 -5 -4 -4 -4 -3 -4 -4 -3 -3 -3 -3 -3 -3 -2 -3 -2 -2 -2 -2 -2 -1 -1 -1 -1 -2 -2 -2 -2 -3 -3 -3 -3 -3 -3 -3 -3 -3 -3 -2 -3 -3 -3 -2 -2
-2 -1 -1 -2 -2 -3 -3 -2 -2 -2 -4 -4 -4 -3 -3 -3 -3 -3 -3 -2 -3 -3 -3 -3 -3 -3 -3 -3 -3 -2 -2 -2 -2 -2 -2 -2 -2 -2 -2 -3 -3 -3 -3 -3 -3 -3 -4 -3 -2 -3 -3 -3 -3 -4
-1 -1 -1 -2 -2 -2 -2 -1 -1 -2 -3 -3 -3 -3 -3 -3 -3 -3 -3 -3 -3 -3 -3 -3 -3 -3 -4 -4 -3 -3 -3 -4 -3 -3 -3 -4 -4 -4 -4 -4 -4 -4 -5 -5 -5 -5 -6 -5 -5 -3 -5 -4 -5 -5
-1 -1 -1 -2 -2 -2 -1 -1 -2 -3 -2 -2 -2 -2 -2 -2 -3 -3 -3 -4 -4 -4 -4 -4 -4 -4 -4 -4 -3 -2 -2 -3 -4 -3 -4 -4 -3 -4 -4 -5 -5 -5 -6 -6 -6 -7 -7 -7 -6 -6 -7 -6 -7 -7
0 -0 -1 -1 -1 -1 -2 -2 -2 -2 -2 -2 -2 -2 -2 -2 -3 -3 -4 -4 -4 -4 -4 -4 -4 -5 -4 -4 -3 -2 -2 -2 -3 -4 -3 -4 -5 -4 -4 -4 -5 -5 -5 -5 -6 -6 -6 -7 -7 -8 -8 -7 -8 -8
-1 -1 -1 -1 -1 -1 -1 -1 -1 -1 -1 -1 -2 -1 -1 -1 -2 -3 -4 -4 -5 -5 -5 -5 -5 -5 -5 -4 -3 -3 -3 -3 -4 -5 -4 -4 -4 -4 -4 -5 -5 -6 -5 -5 -6 -6 -6 -6 -7 -8 -9 -9 -9 -9
-1 -1 -1 -1 -1 -1 -1 -1 -1 -1 -1 -1 -1 -1 -2 -2 -3 -4 -4 -4 -4 -4 -5 -5 -5 -5 -6 -6 -6 -4 -4 -4 -5 -5 -7 -7 -7 -5 -5 -6 -6 -4 -6 -6 -6 -7 -6 -6 -7 -7 -8 -8 -10 -11
-0 -0 -0 -1 -1 -1 -1 -1 -1 -1 -1 -1 -2 -2 -3 -3 -4 -4 -4 -4 -4 -4 -4 -4 -5 -5 -6 -6 -7 -7 -7 -5 -6 -5 -6 -7 -8 -9 -7 -7 -7 -7 -7 -7 -7 -7 -7 -7 -8 -8 -8 -9 -9 -10
-0 -0 -0 -0 -0 -1 -1 -1 -1 -2 -1 -2 -2 -2 -3 -3 -3 -4 -4 -5 -5 -5 -5 -5 -7 -7 -7 -8 -8 -8 -9 -6 -6 -6 -7 -9 -10 -9 -8 -8 -8 -8 -8 -9 -9 -8 -8 -9 -9 -9 -10 -11 -13 -14
-0 0 -0 -0 -1 -1 -1 -2 -2 -1 -1 -1 -1 -2 -2 -4 -5 -5 -5 -5 -5 -6 -7 -7 -7 -8 -7 -7 -8 -7 -10 -7 -7 -7 -8 -8 -9 -9 -9 -9 -9 -9 -9 -9 -10 -11 -10 -10 -12 -14 -13 -13 -13 -12
0 0 -1 -1 -1 -2 -2 -1 -1 -2 -1 -2 -2 -3 -3 -4 -4 -5 -5 -6 -7 -7 -7 -6 -8 -8 -6 -7 -7 -7 -8 -7 -8 -8 -8 -9 -9 -9 -9 -9 -10 -10 -10 -10 -10 -11 -11 -12 -13 -12 -12 -12 -13 -15
0 0 0 -0 -1 -2 -2 -1 -2 -2 -2 -3 -3 -4 -5 -4 -5 -5 -4 -5 -6 -6 -6 -7 -7 -7 -7 -8 -8 -8 -8 -8 -8 -9 -9 -9 -9 -10 -10 -10 -10 -10 -10 -10 -12 -13 -12 -11 -11 -11 -12 -12 -12 -13
1 0 -0 -0 -0 -0 -1 -1 -2 -2 -3 -4 -4 -4 -4 -4 -5 -5 -7 -6 -6 -6 -7 -8 -8 -8 -8 -8 -8 -9 -9 -9 -9 -9 -9 -10 -10 -10 -10 -10 -10 -10 -10 -10 -11 -11 -10 -10 -10 -11 -11 -12 -12 -13

GFSWCAN_700_temp_006.txt.gz
Temp
-5 -6 -6 -6 -7 -7 -7 -7 -8 -8 -8 -8 -8 -8 -8 -8 -8 -8 -8 -8 -8 -7 -6 -6 -6 -7 -7 -7 -6 -5 -5 -3 -2 -2 -2 -2 -1 2 4 6 8 8 9 10 11 12 12 12 11 10 11 12 13 13
-6 -6 -6 -6 -7 -7 -7 -7 -8 -8 -8 -8 -8 -8 -8 -8 -8 -8 -8 -8 -8 -8 -6 -6 -6 -5 -5 -6 -6 -6 -5 -5 -3 -3 -2 -1 -0 1 3 5 7 7 8 10 10 11 12 11 11 12 12 11 12 13
-6 -6 -6 -7 -7 -8 -8 -8 -8 -8 -8 -8 -8 -8 -8 -8 -8 -8 -8 -8 -7 -7 -6 -6 -5 -5 -5 -4 -5 -6 -5 -4 -4 -3 -3 -2 -1 0 1 4 6 8 9 10 10 11 11 10 10 9 11 11 11 12
-6 -6 -7 -7 -7 -8 -8 -8 -8 -8 -8 -8 -8 -8 -8 -8 -8 -8 -7 -7 -8 -7 -7 -5 -6 -5 -5 -5 -5 -3 -3 -5 -4 -4 -4 -3 -2 -1 0 2 3 6 7 8 10 10 8 8 7 8 11 11 11 11
-5 -6 -6 -7 -7 -7 -7 -7 -7 -7 -7 -7 -8 -8 -8 -7 -7 -7 -7 -7 -7 -7 -7 -5 -4 -5 -5 -4 -4 -4 -4 -4 -4 -4 -3 -3 -2 -1 -0 0 2 3 4 6 8 8 8 7 6 8 10 10 10 10
-5 -6 -6 -6 -6 -7 -7 -7 -7 -7 -7 -7 -7 -7 -7 -7 -7 -7 -7 -7 -7 -8 -7 -7 -4 -4 -4 -4 -3 -3 -3 -5 -5 -4 -3 -3 -2 -2 -1 -0 1 2 3 4 6 5 6 7 8 9 8 8 8 8
-5 -5 -6 -6 -6 -6 -6 -6 -6 -6 -6 -6 -6 -6 -6 -6 -7 -7 -7 -7 -7 -7 -7 -5 -4 -4 -3 -3 -4 -4 -4 -4 -4 -3 -2 -2 -1 -1 -0 -0 0 1 2 3 4 2 3 5 7 7 7 6 6 6
-5 -5 -5 -5 -5 -5 -5 -5 -5 -5 -6 -6 -6 -6 -6 -6 -6 -6 -6 -7 -6 -6 -7 -6 -4 -3 -3 -3 -3 -3 -3 -3 -3 -4 -3 -2 -1 -1 -0 0 0 1 1 2 2 3 5 5 5 5 6 5 5 5
-5 -5 -5 -5 -5 -5 -5 -5 -5 -5 -5 -5 -5 -5 -6 -5 -5 -6 -6 -6 -6 -6 -5 -5 -4 -4 -3 -3 -3 -3 -3 -3 -3 -3 -2 -1 -1 -1 -1 -0 1 1 1 2 3 3 4 4 5 5 4 4 4 4
-4 -4 -4 -5 -5 -5 -4 -4 -4 -4 -4 -4 -4 -4 -5 -6 -5 -5 -4 -5 -4 -5 -4 -3 -4 -3 -3 -3 -3 -2 -2 -2 -2 -2 -1 -2 -2 -1 -1 0 1 1 1 1 2 3 3 3 4 3 3 4 4 5
-4 -4 -4 -4 -4 -4 -4 -3 -3 -3 -3 -3 -3 -4 -5 -5 -5 -5 -4 -4 -4 -4 -3 -2 -3 -3 -2 -2 -2 -2 -0 -1 -1 -1 -1 -2 -2 -2 -1 -0 -0 -0 0 1 1 1 1 1 2 3 4 4 3 3
-3 -3 -3 -3 -4 -4 -3 -3 -2 -2 -2 -3 -3 -3 -4 -4 -4 -4 -4 -4 -3 -3 -3 -2 -2 -1 -2 -2 -2 -1 -1 -1 -1 -1 -1 -2 -2 -2 -1 -1 -0 -0 0 1 1 1 -0 1 0 2 1 1 0 1
-3 -3 -3 -3 -3 -3 -3 -3 -3 -2 -2 -2 -2 -4 -4 -4 -4 -4 -3 -3 -3 -2 -2 -2 -2 -2 -1 -1 -2 -1 -1 -1 -1 -1 -2 -2 -2 -1 -1 -1 -1 -1 -2 -1 -0 -0 0 0 1 1 1 0 0 1
-3 -3 -3 -3 -2 -2 -3 -3 -2 -2 -1 -2 -3 -3 -4 -3 -3 -3 -2 -2 -2 -2 -1 -0 -0 -1 -1 -1 -2 -1 -1 -1 -1 -1 -1 -1 -1 -1 -1 -1 -1 -1 -1 -1 -1 0 0 0 1 1 0 0 1 1
-2 -2 -3 -2 -2 -2 -2 -3 -3 -2 -2 -3 -3 -4 -3 -3 -3 -2 -2 -2 -2 -2 -0 -0 0 1 -0 -2 -1 -1 -1 -1 -1 -1 -1 -1 -1 -1 -1 -1 -1 -1 -1 -1 -1 -0 -0 -0 0 0 1 1 1 1
-1 -2 -2 -2 -2 -2 -2 -3 -2 -2 -3 -3 -4 -3 -3 -2 -2 -2 -2 -1 -2 -1 0 -0 -1 -1 -2 -2 -2 -2 -2 -2 -2 -1 -1 -1 -1 -1 -1 -1 -1 -1 -1 -1 -1 -1 -0 -0 -0 -0 -0 -1 -0 0
-1 -1 -1 -1 -2 -2 -1 -2 -4 -4 -4 -4 -3 -3 -3 -3 -2 -2 -1 -1 -1 -1 0 -0 -2 -2 -2 -2 -2 -3 -2 -2 -1 -1 -1 -1 -1 -1 -1 -1 -0 -1 -0 -1 -1 -0 -1 -0 -1 -1 -1 -1 -0 -0
-1 -1 -1 -1 -1 -1 -1 -3 -3 -3 -3 -3 -3 -3 -3 -2 -2 -2 -2 -1 -1 -1 -1 -2 -2 -2 -2 -2 -2 -2 -1 -1 -1 -1 -1 -2 -2 -1 -1 -1 -1 -1 -0 -0 -1 -0 -1 -1 -1 -1 -1 -1 -0 -1
-1 -1 -1 -0 -0 -1 -2 -3 -3 -3 -3 -3 -3 -3 -2 -3 -2 -2 -2 -1 -1 -1 -1 -2 -2 -2 -2 -2 -2 -2 -2 -2 -2 -2 -2 -1 -1 -1 -1 -1 -1 -1 -1 -1 -1 -1 -1 -1 -1 -1 -2 -2 -2 -2
-1 -1 -1 -0 -0 -0 -4 -3 -4 -3 -3 -3 -3 -3 -3 -3 -3 -2 -2 -2 -2 -2 -2 -2 -2 -2 -2 -2 -2 -1 -2 -2 -1 -1 -2 -2 -2 -2 -1 -2 -2 -2 -2 -2 -2 -2 -3 -2 -2 -1 -1 -1 -1 -1
-1 -2 -2 0 -0 -1 -2 -4 -3 -4 -3 -3 -3 -3 -3 -3 -2 -2 -2 -1 -1 -3 -3 -3 -3 -3 -2 -2 -2 -2 -2 -2 -2 -2 -2 -2 -2 -2 -2 -2 -2 -2 -3 -3 -3 -3 -4 -3 -2 -2 -2 -3 -2 -2
-1 -1 -1 -0 -0 -2 -2 -2 -3 -3 -3 -2 -3 -3 -3 -3 -2 -2 -2 -2 -2 -3 -3 -3 -3 -3 -2 -2 -2 -2 -2 -2 -3 -2 -2 -3 -3 -3 -3 -3 -3 -3 -4 -4 -4 -4 -5 -5 -4 -3 -5 -3 -4 -5
-0 -0 0 -0 -1 -1 -2 -2 -2 -2 -2 -2 -2 -2 -2 -2 -2 -3 -3 -3 -3 -3 -3 -3 -4 -4 -4 -3 -2 -2 -2 -3 -3 -3 -3 -3 -3 -3 -3 -3 -4 -4 -5 -5 -5 -5 -6 -6 -5 -5 -6 -6 -6 -6
0 0 -0 -1 -1 -1 -1 -1 -1 -2 -2 -1 -1 -1 -2 -2 -2 -3 -3 -4 -4 -4 -4 -3 -4 -4 -4 -4 -3 -2 -2 -3 -4 -4 -3 -3 -4 -4 -3 -4 -4 -5 -5 -5 -5 -5 -5 -6 -6 -7 -7 -7 -6 -7
1 0 -0 -1 -1 -1 -0 -1 -1 -1 -1 -1 -1 -1 -1 -1 -2 -3 -3 -4 -4 -4 -4 -4 -4 -4 -5 -5 -5 -4 -3 -5 -5 -5 -6 -5 -3 -5 -5 -5 -5 -5 -5 -5 -5 -5 -5 -5 -5 -5 -6 -8 -8 -7
0 0 -0 -1 -1 -1 -1 -0 0 -0 -0 -0 -0 -1 -1 -2 -2 -3 -3 -4 -4 -4 -4 -4 -4 -4 -5 -6 -5 -6 -6 -6 -5 -6 -6 -6 -6 -5 -5 -5 -6 -5 -6 -6 -5 -5 -6 -5 -5 -6 -7 -7 -7 -8
-0 -0 -0 -0 -0 -0 -0 -0 -0 -0 -1 -1 -1 -1 -1 -2 -3 -3 -4 -3 -3 -4 -4 -5 -5 -6 -6 -6 -6 -7 -7 -7 -5 -5 -7 -7 -7 -7 -7 -6 -6 -5 -6 -6 -6 -7 -6 -7 -7 -7 -7 -8 -8 -9
-0 -0 1 -0 -0 -0 -0 -0 -1 -1 -1 -1 -1 -2 -2 -3 -3 -4 -4 -5 -4 -5 -5 -5 -6 -6 -6 -7 -7 -7 -8 -7 -6 -5 -7 -8 -9 -10 -8 -7 -8 -7 -8 -7 -7 -8 -8 -8 -8 -8 -9 -10 -12 -12
1 0 -0 0 -0 0 -0 -1 -1 -1 -1 -1 -1 -2 -2 -3 -3 -3 -4 -4 -5 -6 -6 -6 -6 -7 -7 -8 -8 -8 -9 -7 -6 -7 -7 -7 -8 -9 -8 -8 -8 -9 -9 -9 -10 -9 -9 -10 -10 -10 -11 -11 -12 -11
1 1 1 0 -0 -1 -1 -2 -2 -1 -1 -1 -1 -2 -2 -3 -3 -3 -4 -6 -6 -6 -6 -7 -7 -8 -8 -9 -9 -8 -10 -8 -7 -8 -8 -8 -9 -9 -9 -9 -9 -9 -10 -11 -13 -13 -13 -12 -13 -13 -13 -13 -13 -12
2 2 1 0 -0 -1 -1 -2 -1 -1 -1 -1 -2 -2 -3 -3 -4 -5 -5 -5 -6 -7 -7 -8 -8 -9 -8 -8 -10 -9 -9 -11 -8 -9 -9 -9 -9 -9 -10 -10 -10 -11 -11 -13 -13 -13 -13 -13 -13 -13 -12 -11 -11 -11
2 2 2 1 -0 0 -0 -1 -2 -2 -3 -3 -2 -3 -4 -4 -4 -5 -6 -6 -8 -8 -8 -9 -9 -10 -9 -8 -8 -9 -9 -9 -9 -9 -9 -9 -10 -10 -10 -10 -10 -10 -10 -11 -12 -11 -10 -10 -10 -10 -10 -10 -10 -11
2 2 1 1 1 1 -0 -1 -0 -1 -2 -3 -3 -3 -4 -4 -5 -6 -6 -7 -7 -6 -7 -7 -9 -10 -9 -8 -8 -9 -9 -8 -9 -9 -9 -9 -9 -9 -9 -9 -10 -10 -10 -10 -10 -10 -10 -10 -10 -10 -10 -11 -11 -11

GFSWCAN_700_temp_009.txt.gz
Temp
-4 -4 -5 -5 -6 -6 -7 -7 -7 -7 -7 -7 -7 -7 -7 -7 -7 -7 -8 -8 -8 -7 -6 -6 -6 -5 -5 -6 -7 -6 -5 -5 -4 -3 -2 -2 -2 -1 -1 3 1 2 3 7 10 12 12 13 13 13 12 12 13 14
-4 -4 -5 -5 -6 -6 -7 -7 -7 -7 -7 -7 -8 -8 -8 -7 -7 -8 -7 -8 -8 -7 -6 -6 -6 -6 -6 -6 -6 -6 -5 -5 -5 -3 -2 -2 -1 -1 -1 1 2 2 4 5 5 9 10 9 11 11 12 11 11 12
-4 -4 -5 -5 -5 -6 -6 -6 -7 -7 -7 -7 -8 -7 -7 -7 -7 -8 -7 -7 -7 -7 -6 -5 -5 -5 -6 -5 -6 -5 -5 -5 -5 -4 -3 -3 -2 -1 -0 0 1 2 4 4 5 8 6 6 9 9 10 11 11 12
-4 -4 -4 -5 -5 -5 -5 -6 -6 -6 -7 -7 -7 -7 -7 -7 -7 -7 -7 -7 -7 -8 -7 -4 -5 -5 -4 -5 -5 -4 -5 -5 -5 -5 -5 -4 -3 -1 -1 -0 0 2 4 3 5 7 7 7 7 8 9 10 10 12
-4 -4 -5 -5 -5 -5 -5 -5 -5 -6 -6 -6 -6 -6 -6 -7 -7 -7 -7 -7 -7 -7 -7 -4 -4 -4 -4 -4 -4 -4 -5 -5 -5 -5 -4 -4 -3 -2 -1 -1 1 3 4 5 6 6 6 5 6 8 9 10 10 11
-4 -4 -4 -5 -5 -5 -5 -5 -5 -5 -5 -6 -6 -6 -6 -6 -6 -6 -6 -7 -7 -7 -7 -5 -4 -4 -3 -4 -4 -4 -5 -4 -4 -5 -4 -3 -4 -3 -1 0 2 2 3 4 5 5 6 5 4 6 8 9 9 9
-4 -4 -4 -4 -4 -4 -5 -5 -5 -5 -5 -5 -5 -5 -5 -5 -6 -6 -7 -7 -7 -7 -7 -6 -4 -4 -4 -3 -4 -4 -4 -3 -4 -4 -4 -4 -3 -1 -1 1 1 3 2 3 4 4 5 4 5 3 5 7 8 9
-4 -4 -4 -4 -4 -3 -4 -4 -4 -4 -4 -4 -4 -4 -5 -5 -5 -6 -6 -6 -6 -7 -7 -6 -3 -3 -3 -3 -3 -4 -3 -4 -4 -4 -3 -3 -2 -1 -1 -0 0 0 2 3 3 3 4 1 4 3 4 5 6 6
-3 -4 -4 -3 -4 -4 -3 -3 -3 -3 -3 -3 -4 -4 -4 -5 -4 -5 -5 -5 -5 -6 -5 -5 -5 -4 -4 -4 -4 -3 -3 -3 -3 -3 -3 -3 -2 -1 -1 -0 -0 1 1 2 0 1 2 2 3 2 3 4 5 5
-3 -3 -3 -3 -3 -3 -3 -3 -2 -2 -2 -2 -3 -3 -4 -4 -4 -4 -4 -4 -4 -5 -4 -4 -4 -4 -3 -3 -4 -3 -3 -3 -2 -2 -2 -2 -2 -1 -1 -0 -0 -0 0 1 2 1 1 3 2 3 3 3 4 4
-3 -3 -3 -3 -3 -3 -3 -3 -1 -2 -2 -1 -2 -3 -3 -3 -3 -4 -4 -4 -4 -4 -4 -3 -3 -3 -3 -3 -3 -2 -2 -2 -2 -2 -2 -2 -2 -1 -1 -0 1 0 0 0 1 1 1 2 2 2 3 3 4 4
-2 -2 -3 -2 -3 -3 -2 -2 -1 -1 -1 -1 -2 -2 -2 -4 -3 -3 -3 -3 -3 -3 -3 -2 -2 -2 -2 -2 -2 -2 -1 -1 -1 -1 -2 -2 -2 -2 -1 -1 0 -0 -0 -0 -0 0 2 2 1 1 2 2 3 3
-2 -2 -2 -2 -2 -3 -2 -2 -2 -1 -1 -1 -2 -3 -3 -3 -3 -3 -3 -3 -2 -2 -1 -2 -1 -2 -2 -2 -2 -1 -1 -1 -1 -1 -2 -2 -2 -1 -1 -1 -1 -1 -0 -0 -1 -1 0 0 1 0 1 1 2 1
-1 -2 -2 -2 -2 -2 -2 -2 -2 -1 -1 -1 -3 -3 -3 -3 -3 -2 -2 -2 -2 -1 -1 -1 -2 -2 -2 -1 -1 -1 -1 -1 -1 -2 -2 -1 -2 -1 -2 -1 -1 -1 -0 -0 0 -1 -1 0 1 1 1 1 1 1
-1 -1 -1 -1 -1 -1 -2 -3 -2 -2 -2 -3 -3 -3 -3 -2 -2 -2 -2 -2 -1 -1 -0 -1 -1 -1 -2 -2 -1 -1 -1 -2 -2 -2 -1 -1 -1 -1 -1 -1 -1 -1 -1 -0 -0 -0 -0 -0 0 -0 0 0 0 0
-1 -1 -1 -0 -1 -1 -2 -2 -2 -3 -3 -3 -3 -3 -3 -1 -2 -1 -1 -1 -1 -0 1 -0 -1 -1 -2 -2 -2 -2 -2 -2 -1 -1 -1 -1 -1 -1 -1 -1 -0 -1 -1 -0 -1 -1 -1 -1 -0 -0 -0 -0 1 0
-1 -0 -0 0 -0 -1 -2 -2 -3 -3 -3 -3 -3 -3 -3 -2 -2 -2 -2 -1 -1 1 0 -1 -2 -2 -2 -2 -2 -2 -2 -1 -1 -1 -1 -1 -1 -1 -1 -1 -1 -1 -1 -1 -1 -1 -1 -1 -1 -1 -1 -1 -0 -0
-0 -0 0 0 -0 -1 -1 -2 -3 -3 -3 -3 -3 -3 -2 -2 -2 -2 -1 -1 0 -0 -1 -2 -2 -2 -2 -2 -1 -2 -1 -1 -1 -1 -2 -2 -1 -1 -1 -1 -1 -1 -1 -1 -2 -1 -1 -1 -1 -1 -1 -1 -1 -1
-1 -0 -0 -0 -0 -1 -2 -3 -3 -3 -3 -3 -2 -2 -2 -2 -2 -1 -1 -1 -0 -0 -0 -2 -2 -2 -2 -2 -2 -1 -2 -2 -2 -2 -1 -1 -1 -2 -1 -2 -2 -2 -2 -2 -2 -1 -1 -1 -1 -1 -2 -1 -0 -1
-1 -0 0 -0 0 1 -3 -3 -3 -3 -3 -2 -2 -2 -2 -2 -1 -1 -1 -1 -0 -0 -2 -3 -3 -3 -2 -2 -2 -2 -2 -2 -2 -2 -2 -2 -2 -2 -2 -2 -2 -2 -2 -2 -2 -2 -1 -1 -1 -1 -1 -1 -2 -2
-0 -0 -0 0 1 -0 -1 -2 -3 -3 -3 -3 -3 -2 -2 -1 -1 -1 -1 -2 -1 -2 -3 -3 -3 -3 -3 -3 -2 -3 -3 -3 -3 -2 -2 -2 -2 -2 -2 -3 -2 -2 -2 -3 -3 -2 -1 -1 -2 -2 -2 -2 -3 -3
0 0 0 1 0 -0 -1 -1 -2 -2 -2 -1 -2 -2 -2 -2 -2 -3 -3 -2 -3 -3 -3 -4 -4 -3 -3 -3 -3 -3 -3 -3 -3 -3 -2 -3 -3 -3 -4 -4 -4 -4 -4 -4 -4 -4 -3 -3 -3 -4 -4 -4 -5 -5
1 1 1 0 0 -0 -0 -0 -1 -1 -1 -1 -1 -1 -2 -2 -2 -2 -3 -3 -4 -4 -4 -4 -4 -3 -3 -3 -3 -3 -2 -2 -3 -3 -3 -3 -3 -3 -4 -4 -4 -4 -4 -4 -4 -3 -4 -4 -4 -4 -5 -5 -6 -6
1 1 0 -0 -0 -0 -0 -1 -0 -1 -1 -1 -1 -1 -2 -2 -3 -3 -4 -4 -4 -4 -4 -4 -4 -4 -4 -4 -3 -3 -2 -3 -4 -3 -4 -4 -4 -4 -4 -4 -4 -4 -5 -5 -5 -5 -5 -5 -4 -5 -5 -5 -5 -6
1 1 0 -0 -0 -0 -1 -0 -0 -1 -1 -0 -0 -0 -1 -1 -2 -3 -4 -4 -4 -4 -5 -4 -5 -5 -5 -5 -6 -6 -6 -4 -5 -6 -6 -4 -5 -6 -5 -4 -4 -4 -5 -5 -5 -5 -5 -5 -5 -6 -6 -7 -6 -6
0 0 -0 -0 -0 -0 0 0 -0 -0 -0 -0 -1 -1 -2 -1 -3 -3 -4 -4 -5 -5 -5 -5 -6 -6 -6 -6 -6 -6 -7 -5 -5 -6 -7 -7 -7 -6 -6 -6 -6 -6 -6 -6 -6 -6 -6 -7 -7 -7 -7 -7 -8 -8
-1 -0 1 0 -0 -1 -0 -0 -0 -0 -0 -1 -1 -1 -2 -2 -3 -3 -3 -4 -4 -5 -5 -5 -6 -5 -6 -7 -7 -7 -7 -5 -6 -7 -8 -8 -8 -7 -7 -7 -7 -7 -7 -7 -7 -7 -7 -8 -8 -8 -9 -9 -8 -8
0 0 1 0 0 -0 0 -0 -1 -1 -0 -1 -1 -2 -3 -3 -3 -3 -3 -4 -5 -6 -6 -6 -6 -7 -7 -7 -8 -8 -7 -6 -6 -8 -8 -9 -9 -8 -8 -8 -8 -8 -8 -9 -9 -8 -8 -9 -9 -9 -9 -9 -9 -9
0 0 0 -0 0 0 -1 -1 -1 -0 -1 -1 -1 -1 -2 -3 -3 -3 -4 -5 -6 -6 -6 -6 -7 -7 -7 -8 -9 -8 -7 -5 -7 -7 -7 -8 -8 -8 -8 -8 -8 -9 -9 -10 -10 -10 -11 -11 -10 -9 -9 -9 -9 -9
2 1 1 1 0 -1 -0 -0 -0 -0 -0 -0 -1 -2 -2 -2 -3 -3 -4 -5 -5 -5 -5 -6 -8 -8 -7 -7 -8 -9 -8 -6 -7 -9 -8 -8 -8 -8 -9 -9 -9 -9 -10 -11 -13 -12 -10 -11 -10 -10 -10 -10 -9 -10
2 2 2 1 1 0 0 0 -0 -0 -0 -1 -2 -2 -3 -3 -4 -5 -5 -6 -6 -6 -6 -7 -8 -9 -8 -8 -8 -8 -9 -7 -9 -9 -9 -9 -9 -9 -9 -9 -9 -9 -10 -10 -11 -10 -10 -10 -10 -10 -10 -10 -10 -10
2 2 2 2 1 1 1 0 -0 -1 -2 -2 -2 -3 -3 -3 -4 -5 -5 -6 -6 -6 -6 -7 -8 -8 -7 -7 -8 -9 -8 -8 -9 -9 -9 -9 -9 -9 -9 -9 -9 -9 -10 -10 -10 -10 -10 -10 -10 -10 -10 -10 -10 -10
2 2 2 2 2 1 1 0 0 -0 -1 -2 -2 -2 -3 -4 -4 -5 -6 -6 -6 -5 -6 -7 -7 -7 -7 -7 -8 -8 -8 -8 -8 -8 -8 -9 -9 -9 -9 -9 -9 -10 -10 -10 -10 -10 -10 -10 -11 -11 -11 -11 -11 -11

GFSWCAN_700_temp_015.txt.gz
Temp
-2 -2 -3 -3 -3 -3 -4 -4 -5 -5 -5 -6 -6 -6 -7 -7 -7 -7 -8 -8 -8 -8 -6 -7 -7 -7 -7 -7 -7 -7 -7 -6 -6 -6 -5 -4 -4 -4 -3 -2 0 1 1 -0 1 3 4 7 9 11 11 14 15 15
-2 -2 -3 -3 -3 -3 -3 -4 -4 -4 -5 -5 -5 -6 -6 -6 -7 -7 -7 -8 -8 -8 -6 -7 -7 -6 -6 -6 -7 -6 -7 -7 -6 -6 -6 -6 -5 -4 -2 -2 -0 -1 1 2 1 4 7 7 7 9 11 11 12 14
-2 -2 -2 -2 -3 -3 -4 -4 -4 -4 -4 -4 -5 -5 -5 -6 -6 -7 -7 -8 -7 -7 -5 -5 -6 -6 -7 -6 -7 -6 -5 -6 -6 -6 -6 -6 -6 -5 -4 -2 -2 -0 0 1 2 4 6 7 6 8 9 10 12 13
-1 -2 -2 -2 -2 -3 -3 -3 -3 -3 -3 -3 -4 -4 -5 -5 -5 -6 -6 -7 -7 -7 -7 -4 -5 -5 -5 -5 -5 -5 -5 -6 -6 -6 -6 -6 -6 -5 -4 -4 -3 -1 -0 1 2 5 6 7 6 6 8 9 10 11
-1 -1 -2 -2 -2 -2 -3 -3 -3 -3 -3 -3 -3 -5 -6 -6 -6 -6 -6 -6 -6 -7 -6 -4 -4 -5 -5 -5 -5 -5 -5 -6 -6 -6 -6 -6 -6 -6 -4 -4 -2 -2 -1 0 2 4 6 7 6 5 6 8 9 10
-1 -1 -2 -2 -2 -2 -2 -2 -1 -2 -2 -2 -3 -4 -5 -5 -5 -5 -5 -6 -6 -6 -7 -5 -5 -5 -5 -4 -4 -4 -4 -5 -5 -5 -5 -5 -5 -5 -4 -3 -2 -1 -0 0 1 2 3 6 2 4 5 7 8 9
-1 -1 -1 -2 -2 -2 -2 -1 -1 -1 -1 -1 -1 -2 -3 -3 -4 -5 -5 -5 -5 -5 -6 -5 -3 -4 -4 -4 -4 -4 -4 -4 -5 -5 -5 -5 -5 -5 -4 -4 -2 -1 -1 -0 1 1 3 4 5 3 4 5 5 7
-1 -1 -1 -2 -2 -1 -2 -1 -1 -0 -0 0 -0 -1 -1 -2 -4 -4 -4 -5 -5 -5 -6 -5 -4 -4 -4 -4 -4 -4 -4 -5 -5 -5 -4 -4 -4 -4 -4 -2 -1 -1 0 0 1 2 3 5 3 2 3 3 5 6
-0 -1 -1 -1 -2 -1 -1 -0 -0 -0 0 0 0 0 -0 -2 -3 -3 -2 -4 -4 -5 -5 -5 -4 -4 -4 -4 -4 -5 -5 -5 -5 -4 -4 -4 -4 -3 -2 -1 -1 -0 0 0 2 2 3 5 2 3 4 5 6 6
-1 -1 -1 -1 -1 -1 -1 -0 -0 0 0 0 0 1 -1 -1 -1 -3 -4 -4 -5 -5 -5 -4 -4 -4 -3 -3 -4 -4 -4 -4 -4 -3 -4 -3 -2 -2 -1 -1 1 1 1 1 1 2 2 3 3 3 3 4 5 6
-1 -1 -1 -1 -1 -1 -1 -0 -0 0 0 1 -0 1 -1 -1 -2 -2 -2 -3 -3 -4 -3 -3 -3 -3 -3 -3 -3 -3 -3 -3 -3 -2 -3 -2 -2 -2 -1 -1 0 1 1 1 1 2 2 3 2 2 2 3 3 3
-1 -1 -0 -0 -0 -1 -1 -1 -1 -1 -0 -0 -0 -0 -1 -3 -2 -2 -2 -2 -2 -2 -2 -2 -2 -3 -3 -3 -3 -3 -3 -2 -2 -2 -3 -3 -2 -1 -1 -1 0 0 1 1 1 1 2 2 2 2 2 2 2 2
-0 -0 0 0 -0 -0 -1 -2 -1 -0 0 -1 -1 -2 -2 -2 -2 -2 -2 -2 -2 -2 -2 -2 -2 -2 -2 -2 -2 -2 -1 -2 -2 -2 -2 -2 -2 -1 -1 -1 -0 -0 0 0 -0 0 0 1 1 1 1 1 1 1
0 1 1 1 0 -1 -1 -1 -1 -0 1 -2 -2 -2 -3 -2 -3 -3 -2 -2 -2 -1 -2 -1 0 -0 -1 -1 -2 -2 -2 -2 -2 -2 -2 -1 -1 -1 -1 -1 -1 -1 -1 0 -0 0 -0 -0 -0 0 1 0 0 0
1 1 1 1 0 -1 -1 -1 -1 -0 -1 -3 -3 -3 -3 -3 -2 -2 -2 -1 -1 -1 -1 0 0 0 0 -0 -2 -2 -1 -2 -2 -2 -1 -1 -1 -1 -1 -0 -1 -1 -1 -1 -0 -1 -0 -0 -0 -0 -0 0 0 0
1 1 1 1 0 -0 -1 -1 -1 -1 -3 -3 -3 -3 -2 -0 -1 -1 -1 0 0 1 1 0 -0 -2 -2 -2 -2 -2 -2 -2 -1 -1 -2 -2 -2 -1 -1 -1 -2 -1 -1 -0 -0 -0 -0 -0 -0 -1 -1 -1 -1 -1
2 2 1 0 -0 -1 -0 0 0 -1 -3 -3 -3 -3 -2 -1 -1 -1 -1 -1 1 3 2 -1 -2 -2 -2 -2 -2 -2 -2 -2 -2 -2 -2 -2 -2 -2 -1 -2 -2 -2 -2 -1 -1 -1 -1 -1 -1 -1 -1 -1 -1 -1
1 2 2 1 -0 -1 0 1 -0 -3 -3 -3 -3 -2 -2 -1 -1 -1 0 0 1 -0 -0 -2 -2 -2 -2 -2 -2 -3 -2 -2 -2 -2 -2 -2 -2 -2 -2 -2 -2 -2 -2 -2 -2 -2 -2 -2 -1 -1 -2 -2 -2 -1
2 2 2 2 1 0 0 -1 -3 -3 -3 -3 -3 -2 -2 -2 -2 -1 -1 -0 -0 -1 -1 -3 -3 -3 -3 -2 -3 -3 -3 -3 -3 -3 -3 -3 -3 -3 -2 -2 -2 -2 -2 -2 -2 -2 -2 -2 -2 -2 -2 -2 -2 -2
1 1 1 1 1 1 -0 -1 -1 -2 -3 -3 -3 -2 -2 -2 -2 -2 -2 -1 -1 -1 -3 -3 -3 -3 -3 -3 -3 -3 -3 -3 -3 -3 -3 -3 -3 -3 -3 -3 -3 -3 -3 -3 -3 -3 -3 -3 -2 -2 -3 -3 -3 -3
1 1 1 1 1 1 -1 -1 -1 -2 -2 -3 -3 -3 -3 -3 -3 -3 -3 -2 -2 -4 -4 -4 -4 -4 -4 -3 -3 -4 -3 -3 -3 -3 -3 -3 -4 -4 -4 -4 -3 -3 -3 -3 -3 -3 -3 -3 -4 -4 -4 -4 -4 -4
1 1 1 1 1 0 -0 -0 -1 -1 -2 -2 -3 -3 -3 -3 -3 -3 -3 -3 -5 -5 -5 -5 -4 -4 -4 -3 -4 -4 -4 -4 -4 -4 -4 -4 -4 -4 -4 -4 -4 -4 -4 -4 -4 -5 -5 -5 -5 -5 -5 -4 -4 -4
1 1 1 1 1 0 -0 -0 -1 -1 -1 -1 -1 -2 -3 -3 -3 -3 -4 -5 -5 -5 -5 -5 -5 -5 -4 -5 -5 -5 -5 -6 -5 -5 -5 -5 -5 -5 -5 -5 -5 -5 -5 -5 -5 -5 -5 -5 -5 -5 -5 -5 -5 -5
1 1 0 0 0 0 0 -0 -1 -1 -1 -1 -1 -2 -3 -3 -3 -3 -4 -5 -5 -5 -5 -6 -6 -5 -5 -5 -5 -5 -6 -6 -6 -6 -5 -5 -5 -5 -6 -6 -6 -6 -6 -6 -6 -6 -5 -5 -5 -5 -5 -5 -5 -6
1 1 0 -0 0 0 -0 -0 -1 -1 -1 -1 -2 -2 -3 -3 -3 -3 -4 -4 -5 -6 -6 -6 -5 -5 -6 -6 -6 -7 -7 -7 -7 -7 -7 -7 -6 -6 -7 -7 -7 -7 -7 -7 -7 -6 -6 -6 -6 -6 -6 -6 -7 -7
1 1 1 0 0 0 -0 -0 -1 -1 -1 -2 -2 -3 -3 -2 -3 -4 -4 -5 -6 -6 -6 -6 -6 -6 -7 -7 -7 -8 -8 -8 -8 -8 -7 -7 -7 -7 -7 -8 -8 -8 -8 -7 -7 -7 -7 -7 -7 -8 -8 -8 -8 -8
1 1 1 1 0 1 1 0 0 -0 -1 -2 -3 -3 -2 -2 -3 -4 -4 -5 -6 -6 -7 -7 -7 -7 -7 -7 -8 -8 -8 -8 -8 -7 -7 -7 -7 -7 -7 -7 -8 -8 -8 -8 -8 -8 -8 -9 -9 -9 -9 -9 -8 -8
1 1 1 1 1 1 0 0 0 -0 -0 -1 -1 -1 -2 -2 -3 -4 -4 -5 -6 -6 -7 -7 -7 -6 -7 -8 -8 -8 -8 -9 -9 -9 -8 -8 -8 -8 -8 -8 -8 -8 -9 -8 -9 -9 -9 -9 -9 -9 -9 -9 -9 -9
1 1 1 1 1 1 0 0 -0 -0 -1 -1 -1 -2 -2 -2 -3 -4 -4 -5 -6 -7 -7 -7 -7 -7 -7 -7 -8 -8 -8 -8 -8 -8 -8 -8 -8 -8 -9 -9 -9 -9 -9 -9 -9 -9 -10 -9 -9 -9 -9 -10 -10 -10
2 2 1 1 1 1 1 0 -0 -0 -1 -1 -1 -2 -2 -2 -3 -3 -4 -5 -6 -7 -7 -7 -7 -7 -7 -7 -7 -7 -7 -7 -8 -8 -8 -8 -8 -8 -8 -9 -9 -9 -9 -9 -10 -10 -10 -10 -10 -10 -10 -10 -10 -10
2 2 2 1 1 1 1 1 0 -0 -0 -1 -1 -1 -2 -2 -2 -3 -4 -5 -6 -6 -7 -7 -7 -7 -8 -7 -7 -7 -7 -8 -8 -8 -8 -8 -8 -8 -9 -9 -9 -9 -10 -10 -10 -11 -11 -11 -11 -10 -10 -10 -10 -10
2 2 2 1 1 1 1 1 0 -0 -0 -0 -1 -1 -2 -2 -2 -3 -3 -4 -5 -6 -6 -6 -7 -8 -8 -8 -8 -8 -8 -8 -9 -9 -9 -9 -9 -9 -9 -10 -10 -10 -10 -10 -11 -11 -11 -11 -11 -11 -11 -11 -11 -11
2 2 2 2 1 1 1 1 0 -0 -0 -0 -1 -2 -2 -2 -2 -3 -4 -4 -5 -5 -5 -6 -7 -8 -8 -8 -8 -8 -8 -9 -9 -9 -9 -9 -10 -10 -10 -10 -11 -11 -11 -11 -11 -11 -11 -11 -11 -11 -11 -11 -11 -12